Home   Weather   Portland   Past weeks
Flag for USA

Past Weather in Portland, Oregon, USA — Yesterday and Last 2 Weeks

Now
68 °F

Broken clouds.


Feels Like: 68 °F
Forecast: 72 / 47 °F
Wind: 3 mph from North

Location: Portland International Airport

Current Time: May 26, 2019 at 2:58:15 pm

Latest Report: May 26, 2019 at 1:53 pm


Visibility: 10 mi

Pressure: 29.82 "Hg

Humidity: 55%

Dew Point: 51 °F

Location of PortlandLocation

Past Weather in Portland — Graph

°F

Portland Temperature Yesterday

Maximum temperature yesterday: 57 °F (at 11:53 am)
Minimum temperature yesterday: 51 °F (at 5:18 am)
Average temperature yesterday: 53 °F

High & Low Weather Summary for the Past Weeks

 TemperatureHumidityPressure
High86 °F (May 11, 3:53 pm)93% (May 15, 4:32 am)30.04 "Hg (May 15, 4:32 am)
Low50 °F (May 13, 4:53 am)23% (May 11, 4:53 pm)29.49 "Hg (May 16, 3:53 am)
Average59 °F70%29.86 "Hg
* Reported May 11 1:53 pm — May 26 1:53 pm, Portland. Weather by CustomWeather, © 2019

Note: Actual official high and low records may vary slightly from our data, if they occured in-between our weather recording intervals... More about our weather records

Advertising

Portland Weather History for the Previous 24 Hours

Scroll right to see more
 ConditionsComfort  
Time TempWeatherWind HumidityBarometerVisibility
1:53 pm
Sun, May 26
68 °FBroken clouds.3 mph55%29.82 "Hg10 mi
12:53 pm66 °FBroken clouds.7 mph59%29.83 "Hg10 mi
11:53 am63 °FPartly sunny.No wind63%29.83 "Hg10 mi
10:53 am59 °FPartly sunny.No wind69%29.84 "Hg10 mi
10:22 am58 °FPartly sunny.3 mph72%29.84 "Hg10 mi
9:53 am56 °FOvercast.No wind77%29.84 "Hg10 mi
8:53 am54 °FPartly sunny.No wind77%29.84 "Hg10 mi
7:53 am54 °FMostly cloudy.6 mph80%29.83 "Hg10 mi
6:53 am53 °FPartly sunny.6 mph83%29.83 "Hg10 mi
5:53 am52 °FPartly sunny.3 mph83%29.82 "Hg10 mi
4:53 am51 °FOvercast.5 mph86%29.81 "Hg10 mi
3:53 am51 °FMostly cloudy.5 mph86%29.82 "Hg10 mi
2:53 am51 °FMostly cloudy.6 mph86%29.83 "Hg10 mi
1:53 am51 °FMostly cloudy.7 mph86%29.84 "Hg10 mi
12:53 am51 °FMostly cloudy.5 mph86%29.84 "Hg10 mi
11:53 pm
Sat, May 25
51 °FMostly cloudy.5 mph86%29.85 "Hg10 mi
10:53 pm51 °FMostly cloudy.9 mph83%29.85 "Hg10 mi
9:53 pm51 °FMostly cloudy.7 mph83%29.86 "Hg10 mi
9:16 pm51 °FLight rain. Mostly cloudy.7 mph86%29.86 "Hg10 mi
8:53 pm51 °FOvercast.5 mph86%29.86 "Hg10 mi
7:53 pm52 °FLight rain. Cloudy.6 mph86%29.86 "Hg10 mi
6:53 pm53 °FLight rain. Cloudy.6 mph86%29.86 "Hg8 mi
6:22 pm53 °FLight rain. More clouds than sun.No wind86%29.87 "Hg10 mi
6:05 pm53 °FLight rain. More clouds than sun.No wind86%29.87 "Hg10 mi
4:53 pm52 °FLight rain. Fog.5 mph86%29.88 "Hg3 mi
4:28 pm52 °FRain. Cloudy.8 mph83%29.89 "Hg3 mi
4:11 pm53 °FRain. Cloudy.10 mph83%29.88 "Hg2 mi
3:53 pm54 °FLight rain. Fog.7 mph86%29.88 "Hg4 mi
3:38 pm54 °FRain. Fog.7 mph86%29.88 "Hg4 mi
2:53 pm55 °FLight rain. More clouds than sun.5 mph80%29.89 "Hg10 mi
Weather by CustomWeather, © 2019

See weather overview